2023/07/20 00:00:00, 0.0,20.4
2023/07/20 00:10:00, 0.0,19.8
2023/07/20 00:20:00, 0.0,19.7
2023/07/20 00:30:00, 0.0,19.6
2023/07/20 00:40:00, 0.0,19.9
2023/07/20 00:50:00, 0.0,20.0
2023/07/20 01:00:00, 0.0,19.8
2023/07/20 01:10:00, 0.0,19.8
2023/07/20 01:20:00, 0.0,19.5
2023/07/20 01:30:00, 0.0,19.6
2023/07/20 01:40:00, 0.0,19.4
2023/07/20 01:50:00, 0.0,19.6
2023/07/20 02:00:00, 0.0,19.4
2023/07/20 02:10:00, 0.0,19.4
2023/07/20 02:20:00, 0.0,19.5
2023/07/20 02:30:00, 0.0,19.3
2023/07/20 02:40:00, 0.0,19.2
2023/07/20 02:50:00, 0.0,19.4
2023/07/20 03:00:00, 0.0,19.4
2023/07/20 03:10:00, 0.0,19.2
2023/07/20 03:20:00, 0.0,19.0
2023/07/20 03:30:00, 0.0,19.5
2023/07/20 03:40:00, 0.0,19.4
2023/07/20 03:50:00, 0.0,19.2
2023/07/20 04:00:00, 0.0,19.3
2023/07/20 04:10:00, 0.0,19.4
2023/07/20 04:20:00, 0.0,19.2
2023/07/20 04:30:00, 0.0,19.4
2023/07/20 04:40:00, 0.0,19.0
2023/07/20 04:50:00, 0.0,19.2
2023/07/20 05:00:00, 0.0,19.0
2023/07/20 05:10:00, 0.0,19.2
2023/07/20 05:20:00, 0.0,19.4
2023/07/20 05:30:00, 0.0,19.1
2023/07/20 05:40:00, 0.0,19.3
2023/07/20 05:50:00, 0.0,19.0
2023/07/20 06:00:00, 0.0,19.1
2023/07/20 06:10:00, 0.0,19.0
2023/07/20 06:20:00,---,19.0
2023/07/20 06:30:00, 0.0,18.8
2023/07/20 06:40:00, 0.0,19.3
2023/07/20 06:50:00, 0.0,19.9
2023/07/20 07:00:00, 0.0,20.0
2023/07/20 07:10:00, 0.0,20.2
2023/07/20 07:20:00, 0.0,20.3
2023/07/20 07:30:00, 0.0,20.5
2023/07/20 07:40:00, 0.0,20.4
2023/07/20 07:50:00, 1.3,20.9
2023/07/20 08:00:00, 1.1,21.3
2023/07/20 08:10:00, 0.8,22.1
2023/07/20 08:20:00, 0.8,21.6
2023/07/20 08:30:00, 0.6,22.1
2023/07/20 08:40:00, 0.7,22.4
2023/07/20 08:50:00, 0.6,21.8
2023/07/20 09:00:00, 0.6,21.4
2023/07/20 09:10:00, 0.5,21.3
2023/07/20 09:20:00, 0.6,21.4
2023/07/20 09:30:00, 0.5,22.5
2023/07/20 09:40:00, 0.1,24.0
2023/07/20 09:50:00, 0.0,24.0
2023/07/20 10:00:00, 0.0,25.3
2023/07/20 10:10:00, 0.0,26.2
2023/07/20 10:20:00, 0.1,24.7
2023/07/20 10:30:00, 0.1,23.7
2023/07/20 10:40:00, 0.1,24.0
2023/07/20 10:50:00, 0.0,24.8
2023/07/20 11:00:00, 0.0,25.4
2023/07/20 11:10:00, 0.1,25.6
2023/07/20 11:20:00, 0.1,25.7
2023/07/20 11:30:00, 0.1,25.6
2023/07/20 11:40:00, 0.3,25.0
2023/07/20 11:50:00, 0.0,26.5
2023/07/20 12:00:00, 0.2,25.2
2023/07/20 12:10:00, 0.2,25.4
2023/07/20 12:20:00, 0.1,25.5
2023/07/20 12:30:00, 0.2,25.4
2023/07/20 12:40:00, 0.2,25.0
2023/07/20 12:50:00, 0.1,26.2
2023/07/20 13:00:00, 0.0,25.9
2023/07/20 13:10:00, 0.1,26.6
2023/07/20 13:20:00, 0.4,25.1
2023/07/20 13:30:00, 0.4,24.9
2023/07/20 13:40:00, 0.0,26.4
2023/07/20 13:50:00, 0.0,28.7
2023/07/20 14:00:00, 0.0,28.9
2023/07/20 14:10:00, 0.0,28.7
2023/07/20 14:20:00, 0.0,29.0
2023/07/20 14:30:00, 0.2,29.7
2023/07/20 14:40:00, 0.3,30.0
2023/07/20 14:50:00, 0.1,31.0
2023/07/20 15:00:00, 0.1,30.9
2023/07/20 15:10:00, 0.0,31.7
2023/07/20 15:20:00, 0.0,32.7
2023/07/20 15:30:00, 0.1,33.2
2023/07/20 15:40:00, 0.3,32.2
2023/07/20 15:50:00, 0.4,32.2
2023/07/20 16:00:00, 0.4,32.1
2023/07/20 16:10:00, 0.4,32.3
2023/07/20 16:20:00, 0.4,34.1
2023/07/20 16:30:00, 0.4,33.3
2023/07/20 16:40:00, 0.5,29.5
2023/07/20 16:50:00, 0.5,27.9
2023/07/20 17:00:00, 0.5,28.5
2023/07/20 17:10:00, 0.6,30.5
2023/07/20 17:20:00, 0.6,31.3
2023/07/20 17:30:00, 0.6,32.3
2023/07/20 17:40:00, 0.6,30.6
2023/07/20 17:50:00, 0.7,26.6
2023/07/20 18:00:00, 0.8,24.8
2023/07/20 18:10:00, 0.8,24.4
2023/07/20 18:20:00, 0.8,23.7
2023/07/20 18:30:00, 0.8,23.3
2023/07/20 18:40:00, 0.7,23.0
2023/07/20 18:50:00, 0.8,22.4
2023/07/20 19:00:00, 0.8,22.0
2023/07/20 19:10:00, 0.8,21.4
2023/07/20 19:20:00, 0.9,21.2
2023/07/20 19:30:00, 0.9,21.4
2023/07/20 19:40:00, 0.9,21.2
2023/07/20 19:50:00, 0.9,20.8
2023/07/20 20:00:00, 0.9,20.6
2023/07/20 20:10:00, 0.8,20.8
2023/07/20 20:20:00, 0.8,20.4
2023/07/20 20:30:00, 0.9,20.3
2023/07/20 20:40:00, 1.1,19.7
2023/07/20 20:50:00, 1.1,19.6
2023/07/20 21:00:00, 1.1,19.6
2023/07/20 21:10:00, 0.8,19.4
2023/07/20 21:20:00, 0.8,18.9
2023/07/20 21:30:00, 0.8,18.7
2023/07/20 21:40:00, 0.8,18.2
2023/07/20 21:50:00, 0.8,18.1
2023/07/20 22:00:00, 0.9,17.7
2023/07/20 22:10:00, 0.9,17.9
2023/07/20 22:20:00, 0.8,17.5
2023/07/20 22:30:00, 0.8,17.6
2023/07/20 22:40:00, 0.9,17.8
2023/07/20 22:50:00, 1.0,17.4
2023/07/20 23:00:00, 1.1,17.3
2023/07/20 23:10:00, 1.1,17.2
2023/07/20 23:20:00, 1.1,16.9
2023/07/20 23:30:00, 1.1,17.3
2023/07/20 23:40:00, 1.0,17.2
2023/07/20 23:50:00, 1.0,17.2
